VIZARD (RS33S)

Last updated on Sat Dec 16 2023 00:03:00 GMT+0000 (Coordinated Universal Time)

1 53386U 22096S 23349.38587498 .08332475 25864-5 11218-2 0 9994 2 53386 97.3763 264.9154 0006812 163.2269 196.9255 16.35408025 76069

Satellite not in orbit